International Skating Union - Official Site

ISU World Cup Berlin
December 5-7, 2014

Draw | Lap Times | Index | World Cup

Referee: Erik  ØSMUNDSET  (NOR)
Starter: Åke  FALK  (SWE)
StartTime: EndTime: Air Temp: Ice Temp: Humidity:
18:20 19:13 14.8 ℃ -5.7 ℃ 29.9%
Result Team Pursuit Men
Rankings as of Dec 7 2014 4:36PM
Rank: No.: Team: Nation: Time: Behind: Points:
Total 11
1 4 Poland (109) Zbigniew Brodka (117) Jan Szymanski (114) Konrad Niedzwiedzki (110) Roland Cieslak POL POL 3:45.880.5 - 17.94 - (17.9)
1.0 - 31.56 - (13.6)
1.5 - 45.13 - (13.5)
2.0 - 58.71 - (13.5)
2.5 - 1:12.37 - (13.6)
3.0 - 1:26.31 - (13.9)
3.5 - 1:40.00 - (13.6)
4.0 - 1:53.60 - (13.5)
4.5 - 2:07.50 - (13.9)
5.0 - 2:21.22 - (13.7)
5.5 - 2:34.97 - (13.7)
6.0 - 2:48.79 - (13.8)
6.5 - 3:02.87 - (14.0)
7.0 - 3:17.15 - (14.2)
7.5 - 3:31.67 - (14.5)
8.0 - 3:45.88 - (14.2)
100
2 2 Korea (81) Seung-Hoon Lee (75) Cheol-Min Kim (79) Byung-Wook Ko (78) Min Seok Kim KOR KOR 3:46.970.5 - 17.81 - (17.8)
1.0 - 31.27 - (13.4)
1.5 - 44.89 - (13.6)
2.0 - 58.83 - (13.9)
2.5 - 1:12.88 - (14.0)
3.0 - 1:26.44 - (13.5)
3.5 - 1:40.22 - (13.7)
4.0 - 1:54.09 - (13.8)
4.5 - 2:08.02 - (13.9)
5.0 - 2:21.85 - (13.8)
5.5 - 2:36.15 - (14.3)
6.0 - 2:50.69 - (14.5)
6.5 - 3:05.27 - (14.5)
7.0 - 3:19.28 - (14.0)
7.5 - 3:33.14 - (13.8)
8.0 - 3:46.97 - (13.8)
1.09 80
3 1 Netherlands (86) Douwe de Vries (96) Arjan Stroetinga (99) Frank Vreugdenhil (85) Bob de Jong NED NED 3:47.580.5 - 18.36 - (18.3)
1.0 - 32.14 - (13.7)
1.5 - 45.88 - (13.7)
2.0 - 59.54 - (13.6)
2.5 - 1:13.40 - (13.8)
3.0 - 1:27.29 - (13.8)
3.5 - 1:41.18 - (13.8)
4.0 - 1:54.90 - (13.7)
4.5 - 2:08.86 - (13.9)
5.0 - 2:22.75 - (13.8)
5.5 - 2:36.76 - (14.0)
6.0 - 2:50.90 - (14.1)
6.5 - 3:05.18 - (14.2)
7.0 - 3:19.24 - (14.0)
7.5 - 3:33.50 - (14.2)
8.0 - 3:47.58 - (14.0)
1.70 70
4 3 Russia (127) Aleksandr Rumyantsev (128) Danila Semerikov (130) Danil Sinitsyn (121) Sergey Gryaztsov RUS RUS 3:47.870.5 - 18.13 - (18.1)
1.0 - 31.46 - (13.3)
1.5 - 44.77 - (13.3)
2.0 - 58.13 - (13.3)
2.5 - 1:11.77 - (13.6)
3.0 - 1:25.52 - (13.7)
3.5 - 1:39.50 - (13.9)
4.0 - 1:53.28 - (13.7)
4.5 - 2:07.21 - (13.9)
5.0 - 2:21.21 - (14.0)
5.5 - 2:35.48 - (14.2)
6.0 - 2:49.68 - (14.2)
6.5 - 3:04.10 - (14.4)
7.0 - 3:18.57 - (14.4)
7.5 - 3:33.27 - (14.7)
8.0 - 3:47.87 - (14.5)
1.99 60
5 7 Italy (53) Nicola Tumolero (50) Andrea Giovannini (52) Luca Stefani (51) Mirko Giacomo Nenzi ITA ITA 3:48.480.5 - 17.88 - (17.8)
1.0 - 31.65 - (13.7)
1.5 - 45.19 - (13.5)
2.0 - 58.79 - (13.6)
2.5 - 1:12.52 - (13.7)
3.0 - 1:26.03 - (13.5)
3.5 - 1:39.97 - (13.9)
4.0 - 1:54.06 - (14.0)
4.5 - 2:08.43 - (14.3)
5.0 - 2:22.46 - (14.0)
5.5 - 2:36.68 - (14.2)
6.0 - 2:50.68 - (14.0)
6.5 - 3:05.09 - (14.4)
7.0 - 3:19.50 - (14.4)
7.5 - 3:33.78 - (14.2)
8.0 - 3:48.48 - (14.6)
2.60 50
6 9 Canada (11) Tyler Derraugh (9) Ted-Jan Bloemen (8) Jordan Belchos (18) Denny Morrison CAN CAN 3:49.880.5 - 17.97 - (17.9)
1.0 - 31.51 - (13.5)
1.5 - 45.14 - (13.6)
2.0 - 58.69 - (13.5)
2.5 - 1:12.41 - (13.7)
3.0 - 1:26.28 - (13.8)
3.5 - 1:40.11 - (13.8)
4.0 - 1:53.92 - (13.8)
4.5 - 2:08.08 - (14.1)
5.0 - 2:22.32 - (14.2)
5.5 - 2:36.90 - (14.5)
6.0 - 2:51.28 - (14.3)
6.5 - 3:05.65 - (14.3)
7.0 - 3:20.54 - (14.8)
7.5 - 3:35.28 - (14.7)
8.0 - 3:49.88 - (14.5)
4.00 45
7 6 Austria (2) Armin Hager (4) Bram Smallenbroek (3) Linus Heidegger AUT AUT 3:49.940.5 - 17.84 - (17.8)
1.0 - 31.45 - (13.6)
1.5 - 44.85 - (13.4)
2.0 - 58.48 - (13.6)
2.5 - 1:12.32 - (13.8)
3.0 - 1:26.26 - (13.9)
3.5 - 1:40.18 - (13.9)
4.0 - 1:54.17 - (13.9)
4.5 - 2:08.45 - (14.2)
5.0 - 2:22.96 - (14.5)
5.5 - 2:37.28 - (14.3)
6.0 - 2:51.84 - (14.5)
6.5 - 3:06.22 - (14.3)
7.0 - 3:20.70 - (14.4)
7.5 - 3:35.18 - (14.4)
8.0 - 3:49.94 - (14.7)
4.06 40
8 12 Norway (103) Sverre Lunde Pedersen (105) Fredrik van der Horst (106) Aleksander Waagenes NOR NOR 3:51.920.5 - 18.06 - (18.0)
1.0 - 31.92 - (13.8)
1.5 - 45.72 - (13.8)
2.0 - 59.52 - (13.8)
2.5 - 1:13.54 - (14.0)
3.0 - 1:27.43 - (13.8)
3.5 - 1:41.62 - (14.1)
4.0 - 1:55.93 - (14.3)
4.5 - 2:09.97 - (14.0)
5.0 - 2:23.92 - (13.9)
5.5 - 2:38.35 - (14.4)
6.0 - 2:52.72 - (14.3)
6.5 - 3:07.33 - (14.6)
7.0 - 3:22.03 - (14.7)
7.5 - 3:37.02 - (14.9)
8.0 - 3:51.92 - (14.9)
6.04 35
9 5 Japan (62) Takuro Oda (66) Shane Williamson (63) Takuro Ogawa (59) Shota Nakamura JPN JPN 3:52.840.5 - 17.82 - (17.8)
1.0 - 31.57 - (13.7)
1.5 - 45.44 - (13.8)
2.0 - 59.20 - (13.7)
2.5 - 1:13.09 - (13.8)
3.0 - 1:27.20 - (14.1)
3.5 - 1:41.45 - (14.2)
4.0 - 1:56.01 - (14.5)
4.5 - 2:10.67 - (14.6)
5.0 - 2:25.46 - (14.7)
5.5 - 2:40.01 - (14.5)
6.0 - 2:54.82 - (14.8)
6.5 - 3:09.03 - (14.2)
7.0 - 3:23.25 - (14.2)
7.5 - 3:37.80 - (14.5)
8.0 - 3:52.83 - (15.0)
6.96 30
10 8 Germany (36) Alexej Baumgärtner (47) Marco Weber (44) Jonas Pflug (40) Hubert Hirschbichler GER GER 3:55.240.5 - 18.52 - (18.5)
1.0 - 32.26 - (13.7)
1.5 - 46.35 - (14.0)
2.0 - 1:00.16 - (13.8)
2.5 - 1:14.04 - (13.8)
3.0 - 1:27.98 - (13.9)
3.5 - 1:42.09 - (14.1)
4.0 - 1:56.43 - (14.3)
4.5 - 2:10.73 - (14.2)
5.0 - 2:25.31 - (14.5)
5.5 - 2:39.76 - (14.4)
6.0 - 2:54.73 - (14.9)
6.5 - 3:09.83 - (15.1)
7.0 - 3:25.11 - (15.2)
7.5 - 3:40.13 - (15.0)
8.0 - 3:55.24 - (15.1)
9.36 25
11 10 China (23) Longjiang Sun (20) Bailin Li (24) Talabuhan Rehanbai (21) Yiming Liu CHN CHN 3:56.790.5 - 17.99 - (17.9)
1.0 - 31.70 - (13.7)
1.5 - 45.09 - (13.3)
2.0 - 58.96 - (13.8)
2.5 - 1:13.01 - (14.0)
3.0 - 1:27.38 - (14.3)
3.5 - 1:41.74 - (14.3)
4.0 - 1:56.35 - (14.6)
4.5 - 2:11.02 - (14.6)
5.0 - 2:26.23 - (15.2)
5.5 - 2:41.32 - (15.0)
6.0 - 2:56.62 - (15.3)
6.5 - 3:11.64 - (15.0)
7.0 - 3:26.54 - (14.9)
7.5 - 3:41.50 - (14.9)
8.0 - 3:56.79 - (15.2)
10.91 21